This is the latest recevied weather packets stored in our database for station/object W6JCZ-13. If no packets are shown the sender has not sent any weather packets the latest 10 day(s).
| Time | Temp. | Humidity | Pressure | Rain* | Wind** | Luminosity | Snow |
|---|---|---|---|---|---|---|---|
| 1778097918 | 22.22° C | 58% | 1018.1 hPa | 0 mm | - | - | - |
| 1778097318 | 22.22° C | 60% | 1018.3 hPa | 0 mm | - | - | - |
| 1778096717 | 22.22° C | 58% | 1018.4 hPa | 0 mm | - | - | - |
| 1778096118 | 22.78° C | 62% | 1018.4 hPa | 0 mm | - | - | - |
| 1778095517 | 21.67° C | 65% | 1018.5 hPa | 0 mm | - | - | - |
| 1778094917 | 21.67° C | 61% | 1018.6 hPa | 0 mm | - | - | - |
| 1778094318 | 21.67° C | 62% | 1018.7 hPa | 0 mm | - | - | - |
| 1778093717 | 22.22° C | 62% | 1018.8 hPa | 0 mm | - | - | - |
| 1778093117 | 22.22° C | 63% | 1019 hPa | 0 mm | - | - | - |
| 1778092517 | 21.67° C | 63% | 1019 hPa | 0 mm | - | - | - |
| 1778091917 | 21.11° C | 67% | 1018.8 hPa | 0 mm | - | - | - |
| 1778091317 | 21.11° C | 67% | 1018.9 hPa | 0 mm | - | - | - |
| 1778090717 | 20° C | 69% | 1018.9 hPa | 0 mm | - | - | - |
| 1778090117 | 20° C | 71% | 1019 hPa | 0 mm | - | - | - |
| 1778089517 | 19.44° C | 71% | 1019 hPa | 0 mm | - | - | - |
| 1778088917 | 18.89° C | 75% | 1019 hPa | 0 mm | - | - | - |
| 1778088317 | 18.89° C | 72% | 1018.9 hPa | 0 mm | - | - | - |
| 1778087717 | 18.89° C | 73% | 1019 hPa | 0 mm | - | - | - |
| 1778087117 | 18.33° C | 75% | 1019 hPa | 0 mm | - | - | - |
| 1778086517 | 17.78° C | 76% | 1018.8 hPa | 0 mm | - | - | - |
| 1778085917 | 17.78° C | 76% | 1018.9 hPa | 0 mm | - | - | - |
| 1778085317 | 17.78° C | 75% | 1018.8 hPa | 0 mm | - | - | - |
| 1778084717 | 17.22° C | 79% | 1018.8 hPa | 0 mm | - | - | - |
| 1778084117 | 17.22° C | 79% | 1018.9 hPa | 0 mm | - | - | - |
| 1778083517 | 16.67° C | 79% | 1018.8 hPa | 0 mm | - | - | - |
* Rain latest hour (hover to see other rain measurements)
** Current wind speed in m/s (hover to see current wind gust speed)